Wind_Speed
14 13 12 10 7 3 2 2 1 2 2 3 2 2 3 4 5 5 5 4 4 2 1 6 6 7 7 7 8 7 8 3 1 2 2 5 13 13 11 13 16 19 19 19 19 21 22 23 24 23 24 24 24 22 22 24 24 25 26 28 28 27 26 24 23 23 23 22 22 20 20 20 20 20 19 18 17 17 16 16 15 14 13 12 12 12 11 10 9 8 7 7 6 5 6 5 3
15 13 11 9 5 2 1 2 2 2 4 4 2 2 4 4 5 5 5 5 4 2 6 9 8 10 11 10 6 5 9 7 2 4 4 14 18 12 13 16 20 21 18 20 20 20 22 22 23 23 24 24 23 23 23 24 25 25 26 28 28 27 26 24 22 22 22 22 21 20 20 20 20 20 19 18 17 16 15 15 14 13 12 11 11 11 10 9 8 7 7 6 5 5 5 4 2
15 14 13 10 2 2 1 2 3 2 4 4 2 3 5 6 5 6 7 8 8 8 10 9 8 7 6 6 4 4 4 5 6 6 6 16 15 12 18 19 21 21 21 23 21 22 21 20 22 22 23 24 24 24 23 23 24 26 26 27 27 26 25 23 22 22 22 22 21 20 20 20 20 19 19 17 16 15 14 14 13 12 11 11 11 11 10 8 7 7 6 5 4 4 4 3 2
15 13 12 7 2 2 1 2 2 3 4 3 3 5 7 8 8 8 7 9 7 7 7 6 5 4 6 9 4 5 5 2 5 6 5 11 14 18 21 20 21 23 25 25 24 24 22 22 23 22 23 24 24 25 24 23 24 26 27 27 26 25 24 23 22 22 22 21 20 19 19 19 19 19 18 17 16 15 14 13 12 12 11 11 11 10 9 8 7 6 5 4 3 3 2 2 1
14 13 11 4 2 0 1 2 1 3 3 3 4 5 8 9 10 9 7 6 4 4 4 4 4 4 7 6 1 3 4 3 4 6 7 10 19 23 21 22 24 26 26 25 26 26 24 24 24 24 24 23 24 25 24 24 25 25 26 26 24 22 22 22 21 21 20 20 19 19 18 18 18 18 17 16 15 14 13 13 13 12 11 11 11 10 9 8 7 5 4 3 2 1 1 1 1
13 11 6 3 1 1 1 3 2 2 2 4 6 6 9 9 10 11 9 8 7 7 5 6 7 7 5 3 3 3 4 5 5 7 10 15 22 22 21 24 26 26 26 25 26 26 25 24 24 25 24 23 24 24 24 25 25 25 25 23 22 21 20 20 20 20 19 18 18 18 18 18 18 18 17 16 14 14 14 14 13 13 12 11 11 10 9 7 6 4 2 2 1 1 1 1 1
14 8 2 2 1 0 3 4 3 2 0 4 9 8 10 9 10 12 10 8 8 7 7 7 9 10 5 3 4 4 7 7 7 10 15 20 22 22 23 26 26 26 25 25 25 25 25 24 23 23 23 23 23 23 24 25 25 24 23 21 20 20 20 20 20 19 18 18 18 18 18 18 18 17 17 16 15 14 14 14 13 13 12 11 10 9 7 6 4 3 3 2 2 2 2 2 3
11 4 1 2 0 2 4 4 3 2 2 5 9 10 12 11 10 10 8 7 6 5 7 7 7 10 6 4 4 5 10 8 9 15 21 24 23 23 25 27 27 26 25 25 25 25 24 23 22 21 21 22 22 22 22 23 24 23 22 21 20 20 20 20 20 19 19 19 18 18 18 18 17 17 16 16 15 14 14 14 13 12 11 9 8 7 6 4 4 4 3 3 3 3 3 4 5
6 1 1 2 1 3 3 3 2 3 5 7 9 10 11 9 8 10 9 7 7 6 8 5 3 8 7 7 5 4 9 11 15 20 23 24 24 24 25 26 27 27 26 26 25 23 22 22 22 21 21 21 21 21 20 21 21 21 21 20 20 20 20 19 20 20 19 19 18 18 18 17 17 16 16 15 14 14 13 12 11 10 8 7 6 5 3 3 3 3 3 3 3 4 4 5 6
2 0 2 1 2 4 3 3 3 4 6 8 9 10 10 9 9 11 11 8 8 7 6 6 6 10 10 8 4 2 9 17 21 23 23 23 23 24 25 26 27 27 26 25 25 23 22 22 21 21 20 20 20 20 20 21 21 21 20 20 20 20 20 20 19 19 19 18 18 18 17 17 15 15 14 13 13 12 11 10 9 7 6 5 4 3 3 3 3 3 3 4 4 5 5 6 6
1 1 1 1 3 4 3 3 4 4 6 7 7 8 9 11 11 9 11 9 6 8 7 8 9 12 11 6 3 6 15 21 25 25 23 23 22 23 24 25 26 26 25 25 25 23 23 22 21 20 20 20 21 21 21 21 21 21 20 20 19 20 20 20 19 19 19 18 18 17 16 15 14 13 12 11 11 10 10 8 7 6 5 4 4 4 4 4 5 5 5 5 6 6 7 7 7
1 2 2 3 2 3 4 5 5 6 6 8 7 6 7 11 12 9 12 9 7 11 7 4 6 8 9 4 2 9 16 21 25 24 23 23 22 22 23 24 25 25 24 24 24 23 22 21 21 21 21 21 21 21 21 21 20 20 20 19 19 19 19 19 19 19 19 18 17 16 14 13 12 12 11 10 10 9 8 7 5 4 4 4 5 5 6 6 6 6 6 7 7 8 8 9 8
1 3 4 3 2 3 5 5 6 7 5 6 7 7 8 10 12 11 11 10 11 10 6 5 7 6 7 4 5 8 12 18 23 22 23 22 21 21 22 23 23 23 23 23 23 23 23 21 21 22 22 21 21 21 20 20 19 19 19 19 19 19 19 19 19 18 18 17 16 14 13 12 11 11 10 9 8 7 6 5 4 3 4 5 6 6 7 8 8 8 8 9 9 9 9 10 10
3 2 5 2 1 3 4 5 5 7 3 4 7 8 8 6 11 12 12 13 8 7 8 9 8 8 7 6 6 5 10 19 22 21 23 21 20 21 21 22 22 22 22 23 23 23 23 22 22 22 22 22 21 21 21 20 19 19 19 19 19 18 19 18 18 17 16 16 14 13 12 11 11 10 9 8 7 6 5 4 3 3 4 5 6 7 7 8 9 10 10 11 11 11 10 11 11
7 0 5 3 2 2 3 4 6 7 4 6 9 9 7 5 11 13 13 12 5 7 12 8 5 6 7 8 7 8 15 23 22 23 24 21 20 20 20 21 21 21 21 22 23 23 23 22 22 22 22 22 22 21 20 19 19 19 19 19 18 18 18 18 17 16 15 14 13 13 12 11 10 9 8 7 6 6 5 5 5 5 6 7 7 8 8 9 9 11 12 12 13 12 11 11 11
5 2 4 3 2 3 3 5 6 7 5 7 9 10 9 6 9 9 7 9 9 10 8 6 4 4 7 6 9 16 23 25 23 24 23 21 20 20 19 20 20 21 21 22 23 24 23 23 23 22 22 22 22 21 19 19 18 18 18 17 17 16 16 16 16 15 14 13 12 12 11 10 9 8 7 7 6 6 6 6 7 8 8 8 9 9 9 10 10 12 13 13 13 12 10 10 10
1 2 3 2 3 4 4 6 6 7 7 8 10 11 13 8 4 5 5 10 13 10 3 4 3 5 8 7 15 25 27 26 25 24 21 20 20 19 18 18 20 20 20 22 23 24 24 23 23 22 22 22 22 21 19 18 17 16 16 16 16 15 15 14 14 14 13 12 11 10 10 10 9 8 8 7 7 7 7 7 8 9 9 9 10 10 11 11 10 10 12 13 12 10 8 8 7
2 2 3 3 3 4 5 7 6 8 10 11 12 14 16 12 7 6 8 10 11 9 6 7 6 7 11 15 23 27 27 27 26 24 20 19 19 17 17 18 20 20 20 22 22 23 24 24 23 23 23 22 22 21 20 19 17 16 16 16 15 15 14 14 14 13 13 12 11 10 10 10 9 9 8 8 8 7 7 7 8 9 10 10 10 10 10 10 9 8 9 10 9 8 7 7 7
3 3 2 3 5 4 5 8 8 10 13 12 13 13 15 15 12 9 10 10 9 9 8 8 9 10 13 19 25 25 26 27 25 24 21 20 19 19 18 19 21 21 21 23 23 24 24 24 24 24 24 23 22 21 20 19 18 16 16 16 15 15 14 14 14 14 13 12 11 11 10 10 9 9 9 8 8 7 7 7 8 10 11 10 10 9 9 8 7 6 7 7 6 6 7 7 8
2 3 2 5 5 4 4 9 10 12 15 15 12 11 12 14 12 9 11 13 10 10 11 11 11 12 15 17 22 25 25 24 25 24 22 21 21 21 21 22 23 23 24 25 25 25 25 25 25 25 24 24 23 22 21 20 19 17 17 16 16 15 15 15 15 14 13 12 12 11 11 11 10 10 9 9 8 8 7 7 7 9 11 10 9 9 9 8 6 6 5 5 6 6 6 7 8
2 4 5 6 4 4 5 9 10 13 16 16 13 10 11 13 11 10 14 12 7 9 13 16 17 16 17 16 19 23 22 22 22 22 21 21 21 21 21 23 24 24 25 24 25 26 26 26 26 26 25 25 24 23 22 21 20 19 18 17 16 16 15 15 15 14 13 12 12 12 12 12 11 11 10 9 9 8 8 7 7 9 9 8 8 9 8 7 6 6 5 5 6 6 6 6 7
2 5 7 6 6 6 6 9 12 13 14 14 13 13 13 11 10 13 18 14 9 10 12 17 20 19 19 19 20 20 20 20 19 20 20 20 21 21 21 22 22 22 22 23 25 27 27 27 27 26 26 25 25 24 23 22 21 20 19 18 17 17 17 16 15 15 14 12 12 13 13 13 13 12 11 9 9 9 8 8 8 9 9 8 9 9 8 7 7 6 5 4 5 5 6 7 6
3 6 6 8 9 8 6 10 13 12 13 14 13 12 12 11 10 14 17 11 10 12 13 16 20 22 24 22 20 19 18 19 20 22 22 22 23 22 23 23 22 22 22 24 26 27 28 28 27 26 26 25 24 24 23 22 22 21 20 19 18 17 17 17 15 15 14 13 12 13 13 12 13 13 12 10 9 9 9 9 9 9 9 9 10 9 9 9 8 7 5 3 3 5 8 9 8
6 6 6 11 12 10 8 11 12 12 13 12 10 11 13 14 12 12 9 4 9 13 12 15 18 21 24 20 18 18 18 19 22 25 26 26 26 25 25 25 24 24 23 25 26 27 28 28 27 27 26 25 24 23 22 22 22 21 21 20 19 18 17 17 15 14 13 13 12 12 12 12 13 13 13 11 10 11 10 10 10 10 9 9 9 8 8 8 8 7 5 4 4 7 10 11 11
6 6 6 10 9 10 9 11 12 11 10 9 11 11 10 13 11 8 6 6 10 14 14 14 16 18 18 17 17 16 16 18 21 24 25 26 26 25 24 25 25 25 26 27 27 28 29 28 28 27 26 25 23 23 22 21 21 21 21 21 20 18 18 16 14 13 13 13 13 13 13 12 13 14 14 13 13 13 12 12 11 11 10 11 10 8 8 7 7 7 5 5 6 8 11 12 13
5 7 7 8 9 10 10 11 13 10 8 10 13 9 7 11 10 4 4 10 12 14 16 15 16 17 15 15 16 15 15 17 20 22 23 24 25 24 24 26 26 28 30 29 27 28 28 28 28 27 26 25 23 22 22 22 21 21 21 21 20 18 17 16 14 14 13 13 14 14 14 14 14 15 15 15 15 15 14 13 12 12 12 13 12 10 9 8 8 7 7 7 9 10 12 14 13
4 7 7 10 12 10 11 12 11 9 8 13 15 10 10 9 7 4 4 10 15 16 16 15 16 16 15 14 14 14 15 18 22 23 21 22 23 24 26 27 28 29 30 27 27 27 27 27 28 27 25 24 23 22 22 21 21 21 20 20 20 19 18 16 15 14 14 15 15 15 14 15 16 16 17 17 17 16 15 14 13 13 14 14 13 11 10 9 8 8 9 9 11 12 14 15 13
6 10 7 9 12 9 11 13 12 10 6 11 16 10 7 4 3 8 10 12 16 18 16 16 15 13 14 14 13 12 14 19 23 22 21 22 24 26 27 28 29 29 29 29 27 26 27 27 28 27 25 24 24 22 22 22 22 21 20 20 20 19 18 17 16 15 15 16 15 15 14 15 16 18 18 18 18 17 16 15 14 14 14 13 13 12 11 11 10 10 11 11 13 14 15 13 11
7 12 10 7 9 7 9 10 11 11 7 12 16 9 2 0 5 12 13 14 15 17 17 15 14 12 12 13 11 10 12 18 20 20 21 24 25 27 27 29 30 28 28 29 28 26 27 28 28 26 25 25 25 23 22 23 23 22 20 19 19 18 18 17 16 17 17 16 16 16 16 16 17 18 19 19 18 17 16 15 14 14 13 12 12 12 12 11 12 11 11 12 13 13 13 11 10
7 9 9 7 7 4 6 5 9 11 10 14 13 5 3 2 8 14 13 15 16 15 15 14 12 11 11 11 10 10 12 15 17 20 23 24 26 27 28 29 30 28 26 27 28 27 28 29 28 27 26 26 26 24 24 24 23 22 21 19 19 19 18 18 17 17 17 17 16 16 17 17 17 18 19 19 18 17 16 15 14 13 11 10 10 10 10 9 10 10 10 11 11 10 10 10 10
6 5 3 5 7 5 5 3 9 10 8 9 9 3 5 4 9 14 13 15 17 15 14 13 12 11 10 10 11 10 11 14 18 22 24 26 27 28 28 29 30 29 26 27 29 29 29 29 29 28 27 26 26 25 25 24 22 22 21 20 19 19 19 19 18 17 17 17 16 17 17 17 17 18 18 18 18 17 15 13 12 11 9 9 9 9 9 9 9 9 9 9 8 8 8 9 9
4 4 1 3 6 6 5 5 8 12 9 4 7 3 4 6 11 13 14 15 16 15 14 13 12 12 11 10 11 10 10 14 20 22 25 28 28 27 28 29 30 30 29 29 30 30 29 30 30 29 28 27 27 26 25 24 22 21 21 20 19 19 19 19 17 16 16 16 16 17 17 17 17 17 18 18 17 15 13 11 10 9 8 9 9 9 8 8 8 7 6 6 6 6 7 8 9
3 3 5 5 6 6 4 6 8 10 12 4 4 5 4 6 12 13 14 15 15 14 14 14 12 12 12 10 10 10 9 11 14 19 25 28 28 28 29 29 30 31 31 31 31 31 31 30 30 30 29 29 27 26 25 23 21 20 20 19 18 18 17 17 16 16 15 15 16 16 16 16 17 18 19 18 14 11 11 10 8 7 8 9 9 9 9 8 8 7 6 5 6 6 7 9 10
5 1 5 7 9 10 6 7 9 6 12 7 4 8 7 8 14 15 15 16 15 14 14 14 12 12 11 10 10 10 10 10 10 16 24 28 29 30 30 30 31 32 33 32 32 32 31 31 31 30 30 29 28 25 25 23 21 19 18 18 18 17 16 16 15 15 15 15 15 15 15 15 17 19 18 14 9 9 10 9 6 6 8 9 9 10 9 9 8 8 8 6 7 9 9 10 11
7 4 6 6 8 12 11 10 9 9 9 7 7 7 7 10 15 15 15 17 15 14 15 14 13 13 12 11 10 10 11 11 11 17 25 29 30 30 30 30 30 31 32 32 32 32 32 31 31 30 30 29 28 26 24 23 21 20 19 19 18 17 16 15 15 15 14 14 14 14 14 16 18 18 14 9 7 8 6 5 4 4 6 8 10 11 10 10 9 9 10 10 10 11 11 11 12
9 7 8 9 8 10 12 9 10 14 9 6 10 9 9 13 15 15 15 16 15 14 13 12 12 12 12 11 11 11 12 12 14 20 26 29 30 30 30 30 30 31 31 32 33 32 32 31 31 31 29 27 27 26 24 23 22 21 20 19 18 17 16 14 14 13 13 13 14 14 14 15 15 12 9 9 8 6 3 2 2 3 4 6 8 10 10 10 8 9 10 11 12 11 12 12 12
8 4 5 10 11 9 9 8 10 13 9 6 9 10 13 15 16 16 16 15 14 14 13 12 13 12 12 13 12 12 12 13 16 21 25 28 30 30 30 30 30 29 30 32 32 32 32 31 31 30 27 26 26 26 25 25 24 21 20 19 19 18 16 15 14 14 14 14 14 13 13 13 12 8 6 8 8 5 3 1 2 3 4 5 7 7 7 5 5 7 9 11 11 11 12 12 12
5 3 3 5 8 8 7 7 10 11 6 4 5 7 12 15 16 15 14 16 15 15 16 14 15 14 12 14 15 14 11 10 13 16 21 26 27 28 29 29 30 29 29 31 32 32 31 30 29 27 26 26 25 25 25 25 24 22 20 19 19 18 17 16 15 15 14 14 13 12 11 11 9 6 7 9 7 5 4 3 4 4 5 5 5 4 3 2 3 6 8 10 9 11 13 12 11
3 3 4 3 4 2 3 5 10 10 4 4 7 8 10 11 14 14 15 17 15 15 17 15 16 15 12 14 14 14 11 9 11 13 17 23 25 27 28 28 29 31 30 31 31 31 30 29 28 26 25 25 25 25 25 24 23 21 20 18 17 16 16 15 14 13 11 12 12 11 10 9 7 7 8 7 6 5 5 5 6 5 5 4 3 3 2 2 3 4 6 8 8 10 11 9 8
3 3 4 3 4 2 3 6 11 8 2 4 7 4 3 5 7 9 13 14 11 12 15 14 14 15 15 16 15 14 13 12 13 13 15 20 24 25 27 27 28 29 29 30 30 31 31 30 29 27 26 26 26 25 24 23 22 21 20 17 15 13 13 12 12 11 9 9 10 10 10 9 8 8 8 8 7 6 6 6 5 5 3 2 2 2 2 2 2 3 4 5 6 8 8 6 5
3 4 5 4 5 5 3 5 8 4 4 5 8 4 2 4 7 8 9 9 9 10 12 12 12 14 15 15 14 14 15 14 14 14 14 16 21 24 27 28 27 28 29 30 31 32 32 31 30 28 27 27 26 25 23 22 22 22 20 16 13 11 10 9 10 10 10 9 9 9 9 10 10 10 10 9 8 6 5 5 5 4 4 3 2 2 2 2 1 2 2 2 3 5 5 4 3
3 4 8 8 8 7 6 10 10 4 1 3 8 3 5 4 8 10 7 9 11 9 11 13 13 13 12 11 12 13 14 14 14 15 15 16 20 24 26 27 27 27 30 32 33 33 33 31 30 29 28 28 27 25 24 23 24 23 20 18 15 13 12 11 11 12 12 11 11 11 10 11 11 11 10 8 7 6 6 6 5 4 4 4 3 3 3 3 2 1 1 0 0 1 3 3 3
3 5 9 9 9 7 11 14 11 6 5 7 9 6 3 4 8 11 9 10 13 9 11 15 13 12 12 11 12 12 12 12 12 14 15 16 19 22 23 26 29 29 31 33 34 34 33 31 30 29 29 29 27 25 25 24 24 24 22 21 19 17 15 14 12 11 12 13 13 13 12 11 12 11 9 8 7 7 8 8 6 4 4 3 4 4 5 4 4 3 2 2 0 1 2 4 5
4 5 7 8 8 7 11 14 11 6 3 3 6 3 2 4 8 11 10 9 11 11 12 14 13 13 14 14 14 13 14 13 12 13 14 16 20 23 25 28 31 32 32 33 33 34 33 31 30 29 29 29 27 25 25 25 25 24 23 21 20 19 16 15 13 11 12 13 14 14 13 12 12 10 8 8 8 9 10 9 6 4 3 4 4 5 4 4 4 3 3 2 2 1 2 3 5
7 6 7 7 8 8 9 11 9 6 5 4 6 3 3 4 5 6 9 9 12 15 16 16 16 16 15 15 16 15 15 15 14 15 16 17 21 27 29 30 32 33 33 33 34 34 33 32 30 30 29 28 26 26 26 26 25 23 22 20 19 18 15 13 13 13 14 15 16 15 14 13 12 9 8 9 9 9 9 7 4 3 3 4 4 4 4 4 3 2 2 2 1 1 1 2 3
6 4 5 3 2 5 6 7 5 4 5 8 11 9 4 4 3 5 7 9 13 16 17 16 15 16 16 15 16 16 14 14 14 15 16 19 25 30 31 31 32 32 34 35 35 34 33 32 31 31 30 28 27 27 27 26 25 23 21 19 18 16 15 14 16 17 17 17 17 16 15 14 12 10 9 9 9 8 8 6 4 2 3 3 3 3 3 2 1 1 0 0 1 1 1 2 2
3 3 1 2 3 1 0 1 4 5 4 8 14 16 10 5 4 5 8 13 18 17 14 14 14 15 16 15 15 16 14 13 14 14 15 19 26 29 29 30 31 31 33 34 34 33 33 32 32 32 31 29 29 28 27 26 25 23 21 19 18 17 17 19 20 20 19 19 18 16 16 15 12 10 8 8 9 8 8 7 4 2 3 3 3 3 3 2 2 1 1 2 2 2 2 3 2
4 2 2 1 4 4 4 4 3 5 5 7 13 15 10 7 5 7 13 18 20 18 16 17 18 18 17 16 15 15 14 13 14 13 13 15 17 21 25 27 29 30 31 33 34 34 34 33 33 32 31 31 31 30 29 27 25 24 22 21 19 19 20 22 23 22 22 21 18 16 16 14 11 10 9 8 8 8 8 7 3 2 2 2 1 1 2 2 2 1 1 2 3 3 3 4 4
5 4 5 3 3 2 0 1 1 4 6 6 10 12 7 7 7 9 15 18 19 19 18 19 21 20 18 16 15 13 12 13 14 13 13 13 13 16 22 25 28 30 31 33 34 33 34 34 34 33 33 34 33 32 31 29 27 26 25 23 22 21 21 22 22 22 22 20 17 15 14 14 13 12 10 9 8 9 9 7 4 3 1 1 1 1 1 1 1 2 2 3 3 4 4 4 5
6 6 6 5 4 2 3 3 1 2 6 6 7 10 5 5 5 9 15 20 23 20 19 18 17 20 19 17 15 13 13 14 13 13 13 13 13 17 22 25 27 29 31 34 35 35 34 34 34 34 35 36 35 35 34 32 30 28 27 25 24 23 23 23 22 21 19 17 15 14 13 13 14 13 11 10 10 10 9 6 5 4 3 3 3 2 2 2 1 2 3 3 4 4 5 5 5
6 6 6 6 5 5 4 4 3 4 5 3 3 7 5 5 6 9 14 19 18 15 14 12 11 15 16 13 13 13 13 14 13 13 14 14 16 20 24 26 28 30 33 35 35 36 35 35 36 37 37 38 37 37 36 34 33 31 29 28 26 24 23 23 22 19 18 16 16 15 14 15 15 13 12 11 11 11 9 7 6 6 5 4 4 3 3 2 2 3 4 5 5 5 6 6 6
4 4 5 6 7 6 3 4 6 5 2 0 2 4 5 5 5 5 5 10 11 10 9 9 10 13 11 9 12 13 13 14 13 14 14 15 18 22 25 26 29 31 33 34 35 36 37 37 38 39 39 40 39 39 39 37 35 33 32 30 27 25 24 23 22 20 19 19 17 17 16 16 15 13 13 13 13 11 9 8 8 7 6 5 4 4 4 4 4 5 6 6 7 7 7 8 8
2 4 4 6 6 8 3 2 2 3 2 3 2 3 4 2 5 7 4 3 7 9 10 12 13 13 11 11 13 13 13 14 14 14 14 15 17 21 25 27 29 30 31 34 37 40 41 40 40 41 40 40 41 41 41 39 38 37 35 33 29 27 26 24 23 22 21 19 18 18 17 17 16 14 14 14 13 12 11 10 10 9 8 6 6 6 6 6 7 7 7 7 7 7 8 9 10
5 5 7 4 3 3 3 2 0 3 3 4 3 6 4 3 3 5 3 3 7 10 13 13 12 12 13 13 13 14 15 15 15 15 14 14 16 21 26 29 31 33 35 38 41 42 43 42 42 42 41 43 44 44 42 41 41 40 38 34 31 29 27 25 24 23 22 20 19 18 18 17 16 14 14 14 13 12 12 11 11 10 9 8 7 8 8 8 8 8 8 8 9 9 9 10 11
7 5 6 5 3 2 1 3 3 2 3 3 2 3 3 4 5 4 5 8 9 9 11 11 13 14 15 14 14 15 14 13 13 13 12 12 15 21 26 29 32 35 36 39 41 40 39 40 41 42 44 45 44 43 42 42 42 41 39 36 33 31 29 26 25 24 21 21 20 19 18 16 15 14 14 14 13 13 13 12 11 10 9 9 9 10 9 9 9 10 10 10 10 10 11 12 12
3 2 3 2 3 5 4 3 4 4 4 3 2 2 2 6 6 7 10 11 10 10 10 12 15 16 15 14 14 14 13 13 12 12 13 13 16 22 29 31 33 36 38 38 37 36 38 40 40 41 41 40 40 41 42 42 42 42 40 37 34 32 30 28 26 24 22 22 21 19 18 16 14 14 14 14 14 14 13 12 11 11 10 10 11 11 11 11 11 11 11 11 11 11 13 14 14
3 3 5 3 2 3 2 1 3 4 4 4 3 3 5 6 6 9 10 9 12 14 14 14 14 15 15 14 14 14 13 13 13 13 14 14 16 23 30 33 34 36 36 35 35 36 38 38 39 40 40 38 39 41 41 42 42 42 40 39 36 34 31 28 26 24 22 22 21 19 18 16 15 15 15 16 15 15 14 12 11 11 10 10 11 11 11 12 12 12 12 12 13 14 15 16 16
8 7 7 6 5 4 3 3 2 2 4 5 5 4 7 6 5 8 8 9 12 15 16 14 13 15 15 13 15 15 14 14 14 14 15 14 15 20 27 30 30 30 30 32 34 35 36 36 38 39 38 38 40 42 43 43 41 42 42 40 37 35 32 29 26 24 22 21 21 21 19 18 17 16 16 16 16 15 13 12 11 11 10 10 11 11 12 12 13 14 14 14 14 15 16 16 16
Wind_Direction
172 174 171 161 141 122 353 29 53 346 70 71 59 77 78 95 99 97 99 109 87 360 45 98 108 103 99 110 128 94 40 28 199 125 122 126 130 133 136 139 135 122 117 119 124 127 126 130 129 128 130 132 133 134 135 135 134 135 137 139 139 138 138 138 138 138 137 134 132 136 141 142 140 139 138 137 136 136 137 137 136 134 131 129 128 128 128 128 128 126 123 120 120 115 100 86 70
171 167 158 148 130 94 350 63 74 5 53 66 22 61 92 78 73 85 99 102 95 99 92 92 89 86 100 115 127 86 42 21 60 91 96 124 124 128 140 141 133 122 118 121 125 126 126 129 126 127 130 130 132 133 136 137 137 138 138 139 140 140 140 141 141 139 138 136 138 143 144 143 142 142 140 139 140 140 141 142 142 139 134 132 131 131 131 130 130 129 126 124 129 130 116 102 82
169 164 150 138 106 50 12 42 93 81 67 86 41 49 84 79 76 79 95 102 112 121 105 98 86 79 104 100 41 50 61 16 66 81 110 128 126 135 142 141 135 128 129 127 126 128 127 127 125 127 132 132 132 133 136 138 140 142 141 141 141 141 142 143 143 143 142 143 146 147 146 146 145 144 143 143 145 146 146 146 145 143 140 138 136 134 133 136 138 136 136 136 139 140 131 128 120
166 161 147 129 57 34 32 41 108 112 97 118 69 75 93 98 101 89 95 105 119 119 104 104 71 35 78 90 71 73 95 37 69 88 123 136 140 144 142 140 136 133 134 132 131 132 130 130 129 130 133 134 134 134 135 137 139 142 144 144 143 143 144 146 146 147 147 149 149 149 149 149 148 147 147 149 151 151 151 150 149 149 147 142 139 138 140 147 151 151 149 148 146 143 141 147 159
159 156 150 106 60 120 98 76 87 96 127 157 91 101 114 115 114 104 96 88 86 66 85 116 86 67 76 89 120 85 100 105 93 99 117 138 145 145 144 140 136 134 134 133 134 133 132 133 133 133 133 133 134 135 136 138 140 143 144 145 145 145 147 149 150 151 151 151 151 150 149 149 151 152 153 154 156 156 156 155 155 155 152 149 149 149 151 159 162 161 158 161 157 143 159 180 209
147 143 146 46 29 232 80 86 98 102 182 156 112 126 128 121 119 111 99 76 57 51 64 90 106 107 77 45 41 87 136 121 121 121 124 141 149 147 144 142 138 136 135 134 135 134 133 134 133 134 134 133 133 136 137 137 141 143 143 145 147 148 150 152 153 153 152 151 150 150 149 151 154 156 157 158 161 162 160 159 159 159 157 157 159 159 162 167 169 170 176 205 260 307 311 260 260
140 123 88 20 294 298 85 113 142 125 342 134 127 135 128 122 120 113 108 92 68 58 66 87 115 109 84 69 55 91 121 116 133 139 140 146 150 146 144 144 141 140 138 137 137 137 136 135 135 134 135 135 136 138 136 136 139 141 142 145 149 151 152 154 154 152 152 151 150 150 152 154 155 157 159 161 163 164 162 162 163 163 164 165 164 166 170 174 180 194 210 241 283 300 312 301 300
141 108 74 100 360 36 88 110 138 131 70 104 121 127 127 129 127 116 112 106 94 81 89 103 109 94 78 83 82 78 97 119 142 145 147 147 148 146 146 145 143 141 140 139 137 138 138 138 138 138 138 137 138 137 135 135 137 140 143 147 150 151 153 154 153 153 152 152 152 153 154 155 157 159 162 163 163 164 164 166 168 168 169 170 172 174 178 190 211 224 235 252 281 298 308 307 307
137 57 119 118 35 59 84 81 88 118 111 112 118 123 125 128 122 110 103 92 99 101 105 115 80 95 98 85 91 61 87 130 145 147 150 148 149 147 148 147 144 142 141 141 140 140 141 142 142 142 142 139 138 136 136 138 141 144 147 150 152 154 155 155 155 156 155 155 156 157 157 157 159 161 163 164 164 165 167 169 171 172 175 178 184 191 202 220 235 242 259 274 291 302 302 304 307
102 260 155 126 59 77 80 75 95 113 124 125 126 132 128 123 111 107 106 98 104 103 97 83 73 108 114 95 85 68 116 139 145 148 153 151 151 148 150 151 147 145 145 146 145 145 146 147 147 146 146 143 142 143 144 147 149 151 153 155 156 158 158 158 160 161 160 159 160 161 160 159 161 162 163 164 165 168 170 172 175 180 188 199 214 229 249 253 259 256 268 282 294 297 295 301 305
87 225 165 77 61 95 125 110 118 122 126 120 119 131 129 122 107 100 103 100 99 102 106 86 93 113 107 97 74 110 130 142 147 150 157 155 152 152 153 153 152 150 150 150 148 149 150 151 151 150 150 148 149 150 153 153 155 156 157 160 160 161 161 162 165 166 165 163 165 165 163 162 163 164 163 166 168 172 175 180 187 197 209 232 255 267 274 269 268 266 273 282 286 286 287 290 292
125 196 113 97 108 132 152 124 121 122 127 125 128 138 129 119 110 115 116 114 115 114 132 124 132 128 101 95 103 122 132 144 151 153 158 156 153 155 157 157 157 154 153 152 151 152 153 154 154 154 153 153 155 155 156 157 158 160 161 163 162 162 164 166 168 169 168 168 170 167 165 165 166 165 165 169 172 176 181 191 199 216 240 272 283 286 286 281 278 275 279 279 279 277 279 282 282
215 186 110 96 142 129 131 121 128 124 132 142 139 141 129 119 121 132 124 126 134 128 146 139 148 132 97 106 118 131 140 148 152 153 157 155 154 157 159 161 160 159 158 157 156 157 158 158 158 158 158 157 159 159 160 161 163 164 165 166 165 166 167 169 170 170 171 172 173 169 167 167 166 167 169 173 175 179 185 199 215 245 273 289 291 293 292 291 288 286 284 278 275 275 277 281 282
207 197 117 105 91 113 125 118 135 132 151 160 135 139 134 125 134 134 126 132 138 134 131 132 139 108 105 133 131 153 155 155 155 154 157 155 158 159 160 164 165 164 163 164 163 163 163 163 162 161 162 163 164 164 166 167 168 168 169 170 170 171 171 172 172 172 174 175 174 171 168 168 170 173 176 180 180 183 194 215 241 265 277 282 282 285 284 285 287 287 285 281 280 279 280 282 284
198 29 99 114 76 103 146 147 153 140 163 168 145 143 130 131 140 136 140 138 122 130 124 131 147 104 144 167 155 172 158 157 158 155 157 156 161 162 162 165 167 168 167 169 168 168 168 167 167 165 168 170 170 170 171 173 172 172 173 174 174 174 174 175 174 174 176 176 175 173 172 174 179 182 180 183 184 191 206 229 249 258 261 262 265 271 274 277 281 283 282 281 281 281 284 286 288
189 84 80 95 136 163 159 158 155 139 166 173 156 139 120 135 143 133 146 128 119 144 134 151 186 130 162 170 151 158 154 156 156 156 157 155 159 161 165 167 169 171 171 174 174 174 174 173 173 171 173 176 177 175 176 177 176 177 177 179 179 177 178 178 179 179 180 180 180 179 179 181 183 184 184 188 190 204 222 237 250 255 256 258 264 270 274 277 279 282 284 282 280 283 292 297 296
139 72 80 101 171 185 157 155 163 149 161 167 159 142 128 143 142 93 101 111 129 150 133 131 146 122 141 142 143 149 150 152 153 154 153 150 154 157 164 169 171 174 176 179 179 179 179 179 179 177 178 180 181 181 181 181 181 182 182 183 184 183 183 184 185 185 187 187 186 188 186 186 186 186 194 205 209 223 239 251 259 261 263 266 271 275 280 282 282 286 289 292 295 303 309 309 311
96 79 111 157 185 199 170 161 173 148 149 161 161 152 141 144 136 109 109 114 128 129 102 103 92 101 122 131 141 146 148 151 152 153 151 151 155 158 165 172 175 179 182 185 183 184 184 184 184 181 183 184 185 186 185 185 184 188 189 188 189 190 190 192 193 192 193 193 192 194 193 194 195 197 209 220 226 238 250 258 262 260 259 268 275 280 284 282 283 289 294 300 307 315 318 321 324
122 129 137 204 200 206 175 151 163 147 148 158 160 158 146 141 136 136 136 134 137 121 112 115 109 113 122 134 144 149 150 153 156 156 156 159 164 166 170 176 180 184 187 189 188 188 188 188 188 185 185 187 189 189 189 189 188 192 195 194 194 196 197 198 201 200 201 199 199 203 204 208 209 213 223 229 235 243 251 257 262 257 255 268 278 279 280 278 283 296 298 298 306 315 320 324 324
164 144 168 239 206 201 177 148 158 150 148 151 156 159 142 138 138 147 145 141 151 143 140 139 135 139 138 144 149 152 154 157 160 161 163 166 171 173 175 179 183 187 189 190 190 191 192 191 190 189 188 189 191 191 191 194 194 197 200 199 202 202 203 205 206 206 208 207 209 215 218 221 221 223 228 233 240 247 256 262 264 259 256 263 272 275 276 278 289 301 299 299 309 314 317 321 325
171 164 192 223 175 173 189 156 153 148 148 149 151 149 137 140 141 146 142 138 166 172 165 155 149 151 148 151 155 156 158 160 163 166 168 170 174 178 181 184 185 188 189 190 191 193 195 195 193 192 191 191 193 194 194 197 199 201 204 205 208 209 209 208 208 209 212 215 218 224 228 231 232 230 232 238 247 255 265 272 269 260 256 260 270 276 274 278 288 289 297 307 313 316 323 329 330
160 222 206 191 152 168 190 155 149 148 145 144 146 148 145 147 145 154 152 155 182 182 176 157 150 154 154 157 159 160 160 162 168 170 173 175 176 180 184 187 188 190 190 192 194 195 196 196 196 195 194 195 196 198 199 200 202 204 206 208 212 213 213 211 211 212 215 219 222 228 233 236 237 234 236 243 254 264 271 275 272 261 256 264 274 276 271 274 278 276 290 308 316 328 339 343 337
192 252 209 179 169 170 173 148 149 148 143 147 152 151 146 145 151 166 166 168 172 164 164 157 153 155 155 157 160 164 166 166 170 173 178 178 180 182 183 187 190 191 191 194 197 198 199 198 199 199 197 198 200 202 203 204 206 208 209 210 213 213 213 213 214 216 219 222 224 230 233 236 238 238 239 244 254 261 264 267 266 258 254 264 274 273 269 269 269 268 277 289 312 338 348 350 343
202 250 196 175 172 161 154 147 149 146 144 150 145 143 150 151 155 170 172 156 143 142 150 152 150 151 153 158 164 167 169 170 173 176 180 181 184 185 184 187 191 193 193 197 200 201 202 201 201 202 201 202 203 204 206 208 210 212 213 214 215 214 213 215 216 220 224 225 225 227 230 235 239 241 243 247 254 256 257 259 256 252 250 260 270 274 272 268 263 263 271 283 306 337 348 348 340
209 221 185 163 155 143 142 140 138 133 133 128 119 132 154 150 139 152 165 139 133 134 138 144 145 150 155 161 165 167 169 173 176 177 181 184 186 185 185 189 192 194 196 199 201 203 205 203 203 204 204 205 205 207 209 212 214 215 216 217 217 217 217 219 219 224 229 230 231 231 231 235 239 243 246 251 257 257 257 255 251 249 250 257 268 280 284 276 268 269 278 293 307 327 341 341 333
219 178 156 138 132 136 139 134 129 124 125 114 108 112 129 130 113 99 162 143 133 132 138 146 150 156 161 164 166 168 171 175 178 179 182 186 186 185 186 190 193 197 200 200 201 203 206 205 206 206 206 207 207 209 212 215 217 218 219 218 219 221 223 223 222 229 235 237 239 240 241 242 243 246 249 254 258 259 259 256 252 250 250 254 266 280 288 281 274 275 281 299 309 316 328 331 325
199 140 130 132 135 141 139 130 125 117 118 118 112 116 126 129 117 112 166 144 135 137 143 152 156 161 164 165 167 170 176 179 180 179 181 185 187 188 189 191 194 198 201 201 201 204 206 207 209 208 208 209 209 210 213 216 219 220 221 220 221 224 227 228 230 236 242 243 242 243 246 247 247 247 250 254 256 258 257 256 254 254 255 260 270 279 284 280 275 276 279 296 307 309 318 324 322
153 125 99 120 128 133 136 132 134 118 111 123 114 112 115 107 138 150 158 149 144 145 149 157 161 165 165 166 169 173 181 182 182 181 182 186 188 190 191 194 196 197 200 201 202 203 204 208 209 208 208 209 210 211 214 217 219 220 222 223 224 227 231 235 239 244 246 247 245 244 246 247 247 247 249 250 253 254 252 254 255 256 263 269 274 278 281 280 278 278 278 289 299 304 311 317 318
132 125 107 115 111 129 146 138 144 128 128 135 112 97 83 106 160 152 152 150 149 149 153 161 164 167 168 169 172 178 185 184 185 187 188 189 189 191 193 196 197 197 199 201 202 202 204 208 208 208 208 209 212 211 213 215 216 218 221 225 227 229 234 239 244 246 246 247 247 246 245 246 246 246 248 249 250 252 251 254 258 261 268 271 271 274 277 278 279 280 280 287 296 303 309 317 321
127 124 120 126 102 150 181 150 145 126 145 149 115 112 235 241 160 151 152 151 151 154 159 164 165 169 171 172 177 183 187 186 188 191 191 191 191 193 195 198 199 197 198 199 201 203 205 207 209 209 208 210 213 212 213 214 216 217 221 225 227 230 234 239 243 246 247 246 247 244 242 244 244 244 248 249 248 248 250 257 264 269 274 271 268 271 276 280 284 287 288 292 301 309 317 325 327
116 97 93 136 131 183 228 194 144 127 172 161 98 131 209 191 163 156 158 157 156 161 167 167 167 172 172 174 179 186 191 190 192 192 192 192 192 195 196 197 198 198 196 197 200 203 205 206 209 210 209 211 213 213 214 215 217 218 221 225 226 229 233 237 240 243 244 242 242 240 238 241 243 246 248 248 247 244 248 260 271 279 282 277 277 281 286 291 296 300 300 302 311 320 325 332 332
126 120 151 199 150 175 233 233 165 145 186 190 84 118 189 167 171 165 161 162 162 165 171 172 171 175 175 176 181 187 192 192 192 192 193 194 193 194 197 197 196 197 197 197 199 201 203 206 207 209 210 211 213 214 215 218 220 221 223 225 225 229 231 233 235 238 237 235 237 235 235 240 243 246 247 246 244 244 253 265 276 288 292 293 294 296 296 299 306 309 311 311 317 323 326 333 335
201 161 169 196 156 163 199 226 217 165 167 187 96 136 167 172 176 171 166 168 168 168 174 176 175 178 178 178 184 187 188 190 193 192 193 193 194 194 195 195 195 197 198 198 199 199 201 203 205 208 209 210 212 214 216 219 222 223 224 225 226 228 229 231 232 234 233 231 233 233 235 239 240 242 242 239 236 247 268 280 291 296 297 302 301 298 297 300 305 308 312 306 301 311 320 325 330
213 222 167 192 165 163 175 199 233 199 166 173 141 152 170 172 171 173 173 171 172 174 178 179 179 181 181 181 185 186 187 190 193 192 192 192 194 195 194 194 195 196 198 199 199 199 200 202 204 207 208 209 211 213 215 218 221 222 223 225 228 228 227 230 232 232 232 233 234 236 237 236 235 234 233 231 240 268 279 286 297 296 297 301 295 292 295 295 296 301 304 300 294 299 309 317 322
188 196 174 194 175 173 181 183 194 189 177 162 146 160 168 161 167 175 177 175 176 180 180 180 182 181 181 183 183 186 189 194 195 192 192 192 193 196 196 194 194 195 197 199 200 200 201 202 204 207 208 210 212 214 217 220 222 222 223 226 228 227 227 229 229 229 233 238 239 240 238 233 231 228 225 234 259 271 268 278 291 288 294 296 292 291 291 290 294 300 300 301 302 299 301 308 314
175 190 179 177 179 189 191 182 172 169 167 161 163 165 162 164 172 178 179 180 181 183 182 181 184 183 182 184 186 186 191 197 195 189 190 192 194 196 196 196 196 195 196 197 199 200 201 203 205 208 211 212 212 214 217 220 220 222 224 227 227 226 227 228 230 232 236 240 240 242 240 235 235 238 243 246 246 239 230 271 288 289 299 302 304 300 298 297 296 300 299 300 301 297 297 303 312
160 182 207 186 179 196 200 184 172 164 158 186 182 162 164 172 178 181 178 180 185 185 185 186 186 186 183 186 189 188 194 197 191 187 189 192 194 195 194 195 195 195 195 196 198 199 201 203 204 208 211 212 212 212 215 217 217 217 221 223 225 226 226 226 229 231 234 236 237 239 241 241 248 255 230 209 208 203 192 222 276 298 303 310 317 313 317 312 287 291 295 297 297 296 300 307 315
157 164 210 207 193 197 196 178 172 166 156 188 183 161 174 179 179 182 177 181 191 188 187 190 189 189 187 188 190 192 195 192 185 185 188 191 193 193 193 193 194 194 195 196 198 200 201 203 205 207 210 211 213 214 214 216 216 217 218 220 225 227 227 227 229 232 234 237 237 236 236 236 238 225 185 179 186 189 191 216 245 269 284 302 311 309 327 318 280 290 294 297 300 300 301 311 319
178 148 144 202 241 185 153 177 175 168 159 179 178 174 185 186 181 184 185 188 195 190 189 190 189 189 190 191 192 191 189 184 185 187 188 190 192 191 192 193 194 195 196 197 199 200 201 204 206 208 210 212 214 216 216 217 219 221 222 225 228 229 231 233 235 238 236 236 236 232 227 218 205 191 181 181 189 193 208 226 232 245 263 284 287 277 277 254 276 286 286 294 300 302 302 318 337
185 164 149 192 229 174 167 194 178 169 146 154 161 156 181 187 190 202 203 200 200 196 195 193 191 191 192 194 193 188 186 184 187 190 188 189 190 190 192 194 194 195 196 196 197 198 200 204 207 209 211 214 216 217 218 220 222 222 224 229 232 232 235 236 236 236 230 221 218 219 217 206 193 186 183 186 192 199 211 219 221 227 234 244 244 243 234 226 254 271 281 288 287 295 303 323 354
249 198 180 182 195 196 181 158 155 127 32 102 113 55 327 198 198 217 217 215 217 207 201 200 201 200 197 194 193 190 188 185 185 188 189 188 189 190 193 195 194 193 194 196 197 198 200 205 208 210 213 216 218 218 218 220 221 220 220 223 226 226 224 224 223 219 213 202 198 201 199 191 188 186 185 185 187 192 199 198 195 197 200 203 213 229 244 252 276 287 297 304 282 287 295 309 342
280 234 199 194 197 193 139 129 138 127 309 180 138 126 281 239 208 215 211 213 219 211 205 209 208 206 202 195 198 198 191 187 186 186 186 187 189 190 193 194 193 193 195 197 198 200 203 206 208 210 213 217 219 218 218 219 220 219 219 218 216 213 211 214 216 209 205 200 195 194 190 186 184 181 180 180 182 187 186 181 177 184 195 194 201 217 224 229 236 242 235 358 352 298 300 318 347
249 239 199 196 209 191 148 144 152 168 205 206 174 171 246 251 221 217 209 214 219 214 212 215 211 205 202 197 199 199 194 191 187 187 185 185 188 188 191 193 193 194 197 198 199 201 204 207 208 210 214 218 219 219 220 221 221 221 221 222 221 220 217 216 216 211 210 205 194 191 189 182 178 180 184 188 189 184 177 176 179 189 200 197 203 209 207 206 208 207 196 190 198 337 336 343 349
231 225 171 182 212 200 165 160 172 184 155 167 186 153 112 217 224 207 198 214 224 224 222 218 213 208 204 201 199 196 194 191 185 187 187 184 186 187 189 192 193 195 195 195 197 199 203 207 210 212 215 218 219 220 222 222 222 222 222 223 224 226 225 219 212 207 204 196 186 185 185 179 179 188 196 194 185 178 176 177 181 198 212 205 199 201 204 203 203 209 208 215 241 301 346 342 339
236 207 161 181 212 205 176 172 187 183 134 166 210 169 127 244 251 185 184 208 224 228 226 219 212 209 205 201 200 197 194 191 186 186 187 186 187 188 189 190 192 193 192 194 196 199 203 208 210 213 216 219 220 220 222 223 223 223 223 223 223 223 222 217 206 194 187 183 181 182 181 180 180 182 185 183 179 177 178 178 179 205 209 192 194 203 206 205 206 213 217 233 263 322 346 343 345
231 178 154 145 195 209 185 180 181 154 163 195 201 187 190 261 258 165 173 209 224 227 226 220 213 208 207 202 200 198 193 191 190 188 188 188 188 188 188 187 189 190 191 194 196 199 203 207 209 213 217 219 219 219 221 223 221 222 223 221 218 214 209 202 192 185 184 183 183 183 183 181 177 173 173 179 184 182 181 181 179 182 172 167 170 173 175 177 182 158 96 360 10 5 336 351 358
196 100 131 45 22 5 104 145 115 127 204 219 200 192 192 231 243 185 182 205 214 218 222 219 212 209 208 204 200 197 192 190 191 191 191 191 189 187 185 185 187 188 190 193 196 199 203 206 209 213 216 217 216 217 220 220 219 219 220 217 212 205 196 189 185 185 186 186 186 186 184 181 175 171 171 180 189 186 180 180 175 160 151 148 141 133 123 102 88 82 48 22 15 355 331 337 337
174 112 172 276 330 11 28 11 76 161 224 239 210 197 194 219 242 210 204 211 212 212 214 209 205 207 207 203 200 195 191 189 188 190 190 189 188 186 186 187 187 186 188 191 195 198 202 205 208 212 214 214 215 217 218 216 214 214 215 213 208 202 194 190 189 189 188 189 190 188 184 182 181 178 178 188 195 186 180 183 185 182 157 149 153 122 86 65 53 30 7 350 347 346 332 331 332
149 142 144 180 281 349 15 257 183 202 238 242 199 183 200 236 238 215 209 217 218 214 214 209 201 202 204 201 198 193 188 188 188 189 190 186 185 187 189 189 187 186 188 191 194 197 200 203 206 209 212 213 214 216 215 212 210 210 211 208 204 201 199 197 196 194 192 195 198 194 189 188 188 187 188 199 202 189 187 197 210 220 224 272 266 284 333 334 333 325 324 318 325 337 332 328 332
155 165 161 174 184 167 226 238 263 248 256 255 182 167 205 274 262 221 207 216 219 213 214 212 199 199 202 198 191 188 187 188 189 190 189 188 189 189 189 189 188 188 189 191 193 196 198 201 205 208 210 212 213 214 212 209 209 210 209 205 202 202 202 202 202 201 201 204 206 205 202 197 196 200 205 207 202 192 192 205 224 240 264 304 302 298 304 307 310 304 303 307 316 327 325 319 319
177 166 154 173 172 170 212 214 198 223 247 277 136 157 193 216 233 223 210 221 224 215 217 211 194 201 202 191 184 185 188 189 190 191 190 191 191 190 190 190 190 190 191 192 193 195 197 200 203 206 208 209 211 211 210 208 207 207 205 203 203 205 206 206 207 211 214 214 211 211 212 208 206 212 214 208 199 196 199 214 234 247 260 284 295 297 299 291 292 296 293 295 302 307 305 302 302
214 137 138 192 187 174 201 198 185 187 203 237 143 192 217 211 257 285 240 229 220 203 207 193 189 201 192 178 185 188 190 190 190 193 193 192 191 190 190 191 193 194 192 193 194 195 197 200 203 206 207 208 208 208 207 207 206 204 201 202 205 207 208 208 209 214 218 216 212 210 210 209 210 211 210 205 202 206 215 224 231 236 242 262 278 283 288 283 284 293 293 291 291 291 288 287 287
189 132 186 216 174 156 172 227 195 122 162 235 193 222 272 259 282 317 342 201 184 175 186 191 192 188 177 182 192 191 191 192 193 194 192 190 190 191 192 193 195 195 194 195 196 197 199 200 202 204 206 207 207 207 205 205 203 201 201 203 205 207 206 207 210 211 211 210 209 208 207 207 210 212 211 211 214 218 220 219 220 224 230 243 257 262 269 272 275 282 288 292 294 293 287 282 277
180 200 204 189 124 125 132 176 42 85 190 252 194 193 222 193 233 307 352 157 179 179 183 190 187 178 183 193 193 192 194 193 194 195 192 189 188 191 194 195 196 196 197 198 199 200 200 201 202 202 203 205 206 205 204 203 201 200 201 203 205 206 206 207 208 207 206 206 206 204 205 208 211 214 216 217 216 213 210 211 216 222 226 234 246 254 261 265 266 270 278 285 289 289 286 281 274
208 215 181 152 164 222 155 171 183 155 203 256 254 218 209 193 215 247 211 191 190 185 178 179 180 182 191 195 193 195 194 193 195 193 192 191 190 193 195 197 199 199 200 201 201 201 201 202 204 204 205 206 205 203 202 202 201 201 203 204 205 205 204 205 205 205 206 207 205 203 205 208 210 213 215 212 209 205 206 213 221 225 227 235 246 253 258 261 261 266 274 278 280 282 284 283 279
208 156 159 155 167 181 181 171 166 177 196 216 267 284 240 224 217 203 203 194 174 169 174 182 187 187 192 194 192 193 192 194 195 192 193 192 192 195 197 198 199 199 202 203 202 201 202 204 205 205 207 207 205 204 203 202 201 202 203 204 204 203 202 203 204 205 207 208 207 207 207 206 205 208 209 208 210 212 214 219 225 230 234 243 252 253 252 255 259 265 271 273 275 281 285 286 285
185 192 205 196 131 150 177 178 146 151 166 174 201 250 258 249 211 193 203 189 169 172 179 187 189 188 191 192 190 192 193 195 195 193 194 193 194 197 199 200 201 201 202 202 201 203 204 204 205 206 206 205 205 204 203 203 202 201 202 202 202 202 201 201 203 206 208 208 209 210 208 205 203 205 207 211 217 220 222 227 232 239 247 254 257 255 252 256 263 268 272 276 281 286 288 287 285
184 197 206 189 162 135 157 227 244 120 157 173 171 217 259 257 204 196 201 181 179 183 181 183 185 185 188 192 193 194 193 195 197 196 195 194 194 196 198 201 202 202 202 202 203 204 205 205 206 206 206 205 206 205 205 204 202 201 202 201 201 200 200 200 201 205 208 209 211 212 209 205 205 209 213 217 223 225 229 236 241 249 255 255 255 255 257 263 269 273 278 284 289 289 289 288 285
Height
756 759 760 762 761 762 764 765 782 785 785 800 796 796 794 781 782 787 790 787 788 787 778 778 779 780 785 792 797 798 799 800 803 810 816 808 801 804 804 806 807 807 809 808 808 809 810 811 811 812 814 815 816 816 816 817 819 820 822 823 824 826 827 829 829 830 831 830 831 833 835 836 837 837 838 839 839 840 840 840 840 840 840 840 840 840 840 840 840 840 840 841 841 841 841 842 842
756 759 760 763 762 766 771 770 790 794 793 808 798 794 792 781 787 792 792 789 790 786 778 780 781 783 785 787 789 793 800 799 796 799 802 801 802 805 805 807 807 808 810 810 809 810 811 812 813 813 815 816 817 817 817 818 820 821 822 824 825 827 829 830 831 831 832 832 833 835 837 837 838 838 839 840 840 840 840 840 840 840 841 841 841 840 840 840 840 840 840 841 841 841 842 842 842
757 759 760 763 763 767 774 776 792 800 805 813 802 791 787 791 795 793 789 787 785 780 779 781 784 787 789 792 792 797 805 800 794 796 799 801 802 805 806 807 808 809 810 811 812 811 812 813 814 815 816 817 817 818 819 820 820 821 823 825 826 828 830 831 832 833 834 835 836 837 838 838 839 839 840 840 841 841 841 841 841 841 841 841 841 841 841 841 840 840 840 841 841 842 842 842 841
758 760 760 762 768 773 779 785 790 798 809 811 805 794 788 795 794 791 787 784 781 778 780 783 790 789 790 800 798 799 805 801 797 797 800 801 802 805 806 808 809 810 811 812 813 814 814 815 816 817 818 818 818 819 820 821 822 823 824 825 827 828 830 832 833 834 835 836 837 838 838 839 839 840 841 841 841 841 841 841 841 842 842 842 842 842 842 841 841 841 840 841 841 842 843 842 842
759 761 761 763 774 779 781 788 790 796 803 801 805 798 789 792 790 790 787 783 781 781 782 784 795 792 790 799 797 802 805 801 799 797 800 802 803 805 807 808 809 810 812 813 814 816 816 817 818 818 819 819 819 820 821 822 823 824 825 826 827 829 830 832 834 835 836 837 837 838 839 839 840 840 841 841 842 841 841 841 841 842 841 842 842 842 842 842 842 842 841 841 842 842 843 842 842
759 761 762 764 771 774 781 791 793 796 791 787 799 797 788 787 786 787 786 785 783 782 783 784 792 794 798 799 795 801 801 800 800 799 801 803 804 806 807 809 810 812 813 814 815 816 817 818 819 820 820 820 820 821 822 823 824 825 826 827 828 830 831 833 834 835 836 837 838 838 839 839 840 840 841 841 841 841 842 841 841 841 841 841 841 842 842 842 842 842 843 842 842 842 842 842 842
759 764 767 771 774 773 787 795 793 794 785 780 790 790 786 785 783 785 787 789 789 786 785 787 787 793 805 802 800 801 797 799 799 800 802 803 806 806 808 810 811 812 813 815 816 816 818 819 820 821 821 821 821 822 823 823 825 826 827 828 830 831 832 833 834 835 836 837 838 839 839 839 840 840 840 841 841 842 842 842 842 841 842 842 842 843 843 843 843 843 843 843 843 843 843 843 843
759 766 771 779 783 780 789 793 790 791 785 779 781 783 783 782 781 784 788 789 793 792 789 790 785 796 809 802 807 805 797 801 799 802 803 804 807 808 810 810 812 813 814 815 816 817 818 819 820 821 821 822 822 823 824 824 826 826 828 829 831 832 833 834 835 836 837 838 838 839 839 839 840 840 841 841 842 842 842 842 842 843 843 843 844 844 844 845 845 845 844 844 843 843 843 843 843
760 766 773 781 786 786 790 793 791 788 785 782 780 781 779 779 779 782 788 789 791 793 793 791 786 799 810 805 810 806 800 803 801 804 804 806 808 809 811 811 813 813 814 815 816 818 819 820 821 822 822 823 824 824 825 825 827 827 829 831 832 833 833 835 835 836 837 838 839 839 839 839 840 841 842 842 843 844 844 844 844 844 844 845 845 845 846 846 846 846 845 845 844 844 844 843 844
765 769 775 783 787 793 796 795 793 789 785 782 780 779 777 778 779 782 787 792 791 794 795 789 789 800 808 811 812 806 804 804 803 806 807 808 809 811 813 813 814 813 815 816 817 818 819 821 821 823 823 824 825 825 826 827 828 829 831 832 833 833 834 835 836 837 838 839 839 839 840 840 841 842 843 844 845 846 846 846 846 846 846 847 847 847 847 847 847 846 846 845 845 844 843 843 843
772 772 773 784 791 797 800 797 794 790 784 781 781 777 775 775 779 785 787 793 792 794 795 791 798 802 805 812 812 807 806 806 806 808 808 810 811 812 813 814 816 815 816 817 818 820 820 822 823 824 824 825 826 826 828 829 830 831 832 833 833 834 834 835 836 837 838 839 840 840 841 842 843 844 845 846 847 847 848 848 847 847 847 848 847 848 847 847 847 847 847 846 845 844 843 843 843
775 776 774 787 793 796 796 797 796 791 787 785 786 779 774 774 780 788 789 794 794 796 795 793 799 798 807 815 811 808 807 808 809 809 811 812 813 813 814 815 816 817 818 818 820 821 822 823 824 825 826 827 827 828 829 830 832 832 833 833 834 834 835 836 836 838 839 840 840 842 843 844 845 845 846 847 848 848 848 849 848 848 848 848 848 848 848 847 848 847 847 846 845 844 843 842 842
772 772 774 787 790 793 794 796 795 793 794 787 785 778 773 777 782 786 789 793 794 798 795 790 792 794 808 815 810 809 808 810 810 811 813 813 814 815 816 816 817 818 819 820 821 822 823 824 824 826 827 828 829 830 830 831 832 833 833 834 834 835 836 837 837 839 840 841 842 843 844 845 846 847 847 847 848 848 849 849 848 848 848 848 848 848 848 847 848 848 847 847 845 844 843 842 842
766 762 767 785 788 789 791 796 796 797 799 786 780 776 774 778 780 781 786 796 796 795 792 787 788 796 808 813 813 812 809 811 811 813 814 814 816 816 817 818 819 820 820 821 822 823 823 824 825 826 827 828 829 830 831 832 833 833 834 835 836 836 837 838 839 840 841 842 843 844 846 846 847 847 848 848 848 849 849 849 848 848 848 848 848 847 847 847 848 847 847 846 844 843 842 842 842
758 756 762 781 788 790 790 793 794 797 798 784 778 775 777 778 775 780 783 792 797 787 786 789 788 797 807 809 812 809 806 810 811 813 815 816 817 817 819 819 820 821 821 822 822 823 824 825 826 827 828 828 830 830 832 832 833 834 835 836 837 838 839 839 840 841 842 843 844 845 846 847 847 847 848 848 849 849 848 848 848 848 848 847 847 847 847 847 847 846 845 844 843 842 841 841 841
748 752 765 781 789 792 788 787 791 797 794 782 776 773 782 783 774 782 779 780 791 787 786 793 789 793 801 802 803 802 805 810 811 814 815 817 818 819 820 820 822 822 823 823 823 824 824 825 826 827 828 829 830 831 832 833 834 835 836 837 838 840 840 841 842 843 843 844 845 846 847 847 848 848 848 849 849 849 848 848 848 848 847 847 847 847 847 846 846 845 844 842 841 841 840 840 841
743 753 772 784 788 789 783 784 789 791 787 780 777 773 784 789 779 779 776 776 788 791 790 792 789 789 795 797 799 801 806 809 811 814 815 817 818 820 822 822 823 823 824 823 824 825 825 826 826 828 828 829 831 831 833 834 835 836 837 838 839 841 841 843 843 844 845 845 846 847 847 848 848 848 848 849 849 849 848 848 848 847 847 847 846 847 846 846 845 845 843 841 840 839 839 840 840
750 767 780 785 786 781 772 775 776 776 780 780 777 773 778 787 784 779 782 788 790 793 794 793 792 791 794 796 799 803 806 809 811 813 815 817 818 819 821 822 822 823 823 824 825 825 826 826 827 829 829 830 831 832 833 834 836 837 838 839 840 841 842 843 844 845 845 846 847 847 848 848 848 848 848 849 848 848 848 848 848 847 847 847 847 846 846 846 845 844 842 840 839 839 839 840 840
755 771 781 781 777 769 759 763 765 766 775 776 775 772 773 779 781 780 789 797 795 798 800 798 799 798 797 798 801 805 806 809 810 812 814 815 817 818 819 820 821 822 822 823 824 825 826 827 827 828 829 830 831 832 834 835 836 837 838 839 840 841 842 843 844 845 845 846 847 847 848 848 848 848 848 848 848 848 848 847 847 847 847 847 847 846 846 846 845 844 843 841 840 840 841 841 841
754 764 779 775 764 762 755 757 759 759 765 771 775 773 774 776 775 779 789 798 797 799 800 800 805 803 800 800 801 804 806 808 810 811 813 814 815 816 817 817 818 820 821 822 823 825 825 826 827 828 829 830 831 833 834 835 836 837 838 839 840 841 842 843 844 845 845 846 847 847 847 848 848 848 848 848 847 847 847 847 847 846 847 847 847 846 846 845 845 844 843 842 842 841 842 841 841
754 759 771 763 756 762 756 754 756 755 759 766 773 774 778 775 773 780 788 799 803 798 791 791 797 799 799 800 800 803 805 808 810 811 812 813 815 815 816 816 817 819 820 822 823 824 824 826 827 827 829 830 831 832 833 835 836 837 838 839 841 841 842 843 844 845 845 846 846 847 847 847 847 847 847 847 847 847 846 847 847 846 846 846 846 846 846 845 844 844 844 843 842 842 842 841 841
754 756 755 752 754 761 754 751 753 755 758 764 771 776 777 774 775 781 784 795 797 789 785 784 787 791 794 796 798 801 803 807 809 810 811 812 813 814 816 817 818 820 821 822 822 823 824 825 826 827 829 830 831 832 833 834 835 837 838 839 840 841 842 843 844 844 845 846 846 846 846 846 846 846 846 846 847 846 846 847 847 847 846 846 846 846 845 845 844 844 843 843 842 842 841 841 840
756 755 747 748 749 753 752 749 752 754 760 766 770 770 770 775 782 779 779 784 780 776 779 781 782 785 789 793 796 799 801 804 806 808 809 810 812 813 814 816 817 819 820 821 821 822 823 824 826 827 829 830 831 832 833 834 835 836 838 839 840 841 842 842 843 844 844 845 845 845 845 846 846 845 845 846 846 846 846 846 846 846 846 846 846 845 845 844 844 844 843 843 842 842 841 840 839
754 754 746 746 744 747 749 748 751 752 759 762 762 765 770 778 783 780 781 779 773 774 778 780 784 786 790 793 795 798 800 802 803 805 807 808 810 811 812 814 815 817 819 820 820 821 822 823 825 826 828 829 830 832 833 834 835 836 837 838 839 840 841 841 842 843 844 844 844 845 845 845 845 845 845 845 846 846 846 846 846 846 846 846 845 845 845 844 844 843 843 843 842 841 840 839 839
748 750 745 743 743 745 747 748 752 753 757 758 760 769 773 773 776 782 784 779 775 776 779 783 787 789 792 794 796 798 800 802 803 805 806 807 809 811 813 813 814 816 816 817 819 820 821 823 824 825 827 828 830 831 832 833 834 836 837 838 838 839 840 841 842 842 843 843 844 844 844 844 844 844 844 844 845 845 845 845 845 845 846 846 845 845 844 844 843 843 843 842 841 841 840 839 838
743 743 743 744 746 746 748 751 753 754 756 757 766 776 775 770 774 786 785 778 778 778 782 786 788 792 794 795 797 798 800 801 803 805 806 807 809 810 811 812 813 813 814 815 818 819 820 822 823 824 826 828 829 831 832 833 834 835 835 836 838 838 839 840 841 842 842 842 842 842 842 843 843 843 843 844 844 844 844 844 844 844 845 845 845 844 844 843 843 842 842 841 841 840 839 839 838
736 740 743 743 747 747 749 754 754 756 758 758 769 781 777 770 777 792 787 777 779 782 787 788 790 794 794 796 797 798 800 800 802 804 806 807 808 809 809 810 811 811 813 815 817 818 820 822 823 824 825 827 829 830 831 832 832 833 834 836 837 837 838 839 840 840 841 841 841 841 841 841 842 842 842 843 843 843 843 843 843 843 844 844 844 843 843 843 842 842 841 841 840 840 839 838 837
734 740 748 749 750 752 752 755 756 757 763 760 765 779 779 775 781 788 783 778 780 784 790 790 792 795 794 796 797 798 799 800 802 802 803 805 805 806 807 808 809 811 812 814 816 818 820 821 822 823 825 826 828 829 830 831 831 832 834 835 836 836 837 838 838 839 839 839 840 840 840 840 841 841 841 841 841 842 841 842 842 842 843 843 843 843 842 842 842 842 841 840 840 839 839 838 836
736 740 756 762 758 762 758 756 755 756 766 759 760 785 790 784 785 782 777 779 781 785 791 792 794 795 795 796 797 798 799 799 801 801 802 802 803 805 806 807 808 810 812 813 816 817 819 820 821 823 824 826 827 828 829 830 831 832 833 833 834 835 836 837 837 837 837 838 838 838 839 839 839 840 840 840 840 841 841 841 841 841 842 842 842 842 842 842 841 841 840 840 839 839 838 837 836
745 746 758 770 774 776 763 758 758 757 764 753 760 797 803 790 785 779 777 778 784 790 792 793 794 795 796 797 797 798 798 798 799 799 801 802 803 804 804 807 808 810 812 814 815 816 818 819 821 822 823 825 826 827 828 828 830 831 832 832 833 834 835 835 835 836 836 836 837 837 838 838 838 838 838 839 839 840 840 841 841 840 841 841 841 841 841 841 840 840 839 839 838 838 837 836 835
754 759 764 772 785 786 765 759 762 764 766 751 762 798 803 791 786 779 776 778 783 791 792 792 794 794 796 796 798 798 796 797 797 798 800 800 802 803 804 806 807 809 811 812 814 815 817 818 820 821 822 823 824 826 826 827 828 829 831 831 832 833 833 834 834 834 835 835 835 835 836 837 837 837 838 838 839 839 840 840 840 840 840 840 840 840 840 839 839 839 838 838 837 837 837 836 835
759 773 784 779 782 785 770 761 761 765 766 755 767 797 801 791 786 778 776 779 782 789 792 791 793 793 795 796 796 798 796 796 796 797 798 799 800 801 803 805 806 808 809 810 812 814 816 817 819 820 821 822 823 824 825 826 827 828 829 830 831 831 832 832 833 833 833 833 834 834 835 835 836 836 836 837 838 839 839 838 838 838 838 838 838 838 838 838 838 838 837 837 837 837 836 836 835
767 775 790 785 782 787 779 766 758 758 763 762 771 792 799 789 782 778 776 779 783 788 790 790 792 792 793 795 795 795 796 796 796 796 797 798 799 801 802 804 805 806 807 809 811 812 814 816 818 819 820 821 821 823 824 825 826 827 828 828 829 830 830 831 831 831 832 832 832 833 833 834 834 834 834 836 837 838 838 838 837 837 837 837 837 837 837 837 837 837 837 837 837 836 836 835 834
777 776 783 781 778 784 783 774 762 757 763 768 772 783 788 782 778 778 775 777 782 787 789 789 790 791 791 793 794 794 795 796 795 794 795 796 798 799 801 802 803 804 806 807 809 811 813 815 816 817 818 819 820 822 823 824 825 826 826 827 827 828 828 829 829 830 830 831 831 831 832 832 832 832 833 834 836 837 837 837 836 835 836 836 836 836 836 837 836 837 836 836 837 836 835 834 834
778 780 781 780 778 778 779 773 762 760 767 772 778 783 783 779 778 778 776 776 781 784 785 786 787 788 789 791 792 793 794 794 792 792 793 795 796 798 799 801 802 803 805 806 808 810 812 813 815 816 817 818 819 821 822 823 823 824 824 825 826 826 827 827 828 829 829 830 830 830 831 831 831 832 832 833 835 835 835 836 835 835 835 835 835 835 836 836 836 836 836 835 835 835 834 834 833
766 770 772 776 779 776 769 761 754 757 770 777 778 782 783 782 780 779 777 776 780 783 782 784 785 785 787 789 790 791 792 791 788 789 792 793 794 796 797 799 801 802 804 805 807 809 810 812 813 815 816 817 818 819 820 821 821 822 823 823 824 824 825 826 827 827 828 828 829 829 830 829 830 831 832 832 833 835 835 835 834 835 835 835 835 835 835 835 834 834 834 834 834 834 833 833 832
757 764 768 768 772 773 763 758 753 751 768 779 775 777 780 780 779 776 775 777 780 783 783 783 783 783 784 786 787 788 788 786 785 788 790 791 793 794 796 798 799 801 803 804 806 807 809 810 812 813 814 816 817 818 818 819 819 820 821 822 822 823 824 825 825 826 827 827 828 828 829 829 829 830 831 832 833 834 834 834 834 834 834 834 834 834 834 833 833 833 833 833 833 833 832 831 831
754 761 767 770 771 768 759 757 755 751 766 778 775 779 781 776 776 774 773 777 779 778 780 781 780 780 781 782 784 785 784 783 784 787 788 789 791 793 795 796 798 799 801 803 804 806 808 809 810 811 813 814 815 816 816 817 818 819 820 821 821 823 823 824 824 825 826 826 827 828 828 828 829 830 830 831 832 832 832 832 833 833 833 833 834 833 833 833 832 832 832 832 832 832 831 831 831
754 759 765 773 770 765 762 757 755 755 766 778 777 781 783 776 774 773 772 773 772 770 772 774 776 778 780 780 780 781 783 784 784 785 786 788 789 791 793 794 796 797 799 801 803 805 806 807 809 810 811 812 813 814 815 816 818 819 820 821 821 822 822 823 824 824 825 825 826 826 827 827 828 829 829 830 830 831 831 831 832 832 832 833 833 833 832 832 832 831 831 831 831 831 831 830 830
754 759 765 771 765 767 772 764 760 759 764 775 778 783 785 780 778 776 771 769 768 768 768 769 771 773 774 774 774 777 780 782 783 783 784 785 787 789 790 792 794 796 797 799 801 803 805 806 807 808 810 811 811 813 814 816 818 819 820 821 821 822 822 822 823 823 824 824 824 825 825 826 827 827 828 829 829 830 830 831 831 831 832 832 832 832 832 832 831 831 830 830 830 830 830 830 829
755 754 760 765 760 761 766 764 763 764 768 772 779 794 795 785 787 783 774 771 771 769 770 771 770 768 768 769 771 772 774 776 779 781 781 782 784 786 787 789 792 794 795 797 799 801 802 804 805 807 808 809 810 811 813 815 817 818 819 820 821 821 821 821 822 822 822 823 823 824 824 825 826 827 827 828 828 829 830 830 831 831 831 831 831 831 831 831 831 830 830 829 829 829 829 829 829
758 751 750 752 752 755 759 762 768 780 788 777 778 807 809 788 787 787 778 776 774 771 772 773 771 768 769 771 771 770 770 771 773 775 777 779 781 783 785 787 789 791 793 794 797 798 800 802 803 805 806 807 809 811 812 814 815 816 817 818 819 819 820 820 820 821 821 822 822 822 824 824 825 826 827 828 828 829 830 830 831 831 831 831 831 831 831 831 831 830 830 829 828 828 828 828 828
763 748 739 742 745 752 758 762 771 787 791 773 769 796 808 795 787 783 778 779 776 773 773 771 769 769 769 769 769 769 770 770 770 772 773 775 778 780 782 784 786 788 790 792 794 796 798 800 801 803 804 805 807 809 811 812 813 815 816 816 817 818 818 819 820 820 821 821 821 822 823 824 825 826 827 828 828 829 830 830 831 831 831 831 831 831 831 831 831 830 830 829 828 828 828 828 828
758 738 732 740 743 751 758 758 766 773 772 772 771 779 797 800 786 776 776 781 780 776 773 769 767 766 765 765 764 765 766 766 768 770 770 772 774 776 778 781 783 785 787 790 792 794 796 798 799 801 802 804 806 808 809 810 811 813 814 815 816 817 817 818 819 820 820 821 821 822 823 824 825 826 827 827 828 828 829 830 831 831 831 831 831 831 830 830 830 830 830 830 829 829 828 828 827
743 728 731 737 738 746 752 756 763 762 770 788 785 777 794 800 781 773 777 782 783 776 769 765 762 761 761 761 761 760 761 761 763 765 766 767 769 771 774 777 780 783 785 788 789 792 794 796 798 799 801 802 804 806 807 808 809 811 812 813 814 815 816 817 818 819 820 820 821 822 822 823 824 825 826 827 828 828 828 829 830 830 831 831 831 830 830 830 830 830 830 830 830 829 829 828 827
728 723 731 735 738 743 748 757 763 766 779 794 787 777 790 796 782 778 783 784 780 769 760 757 756 757 757 757 757 756 757 759 759 761 762 763 764 767 771 775 778 780 782 785 787 789 792 793 795 797 798 800 802 803 805 806 807 808 810 811 812 813 814 816 817 818 819 820 821 821 822 823 824 825 826 826 827 827 828 828 829 829 830 830 830 830 829 830 830 830 830 830 830 829 829 828 827
721 727 735 740 746 747 752 758 762 779 793 787 777 771 778 789 784 777 775 767 759 755 754 753 752 753 753 752 752 752 754 756 757 759 760 761 764 766 770 773 775 778 780 783 785 787 789 790 792 794 795 797 799 801 802 803 805 806 807 808 810 811 812 814 815 816 818 819 820 821 821 822 823 824 825 826 826 827 827 827 828 828 829 829 829 829 829 829 829 829 829 829 829 829 829 828 828
724 733 740 750 758 758 765 768 769 790 798 777 766 766 774 786 778 765 757 744 739 743 745 745 746 746 746 746 747 747 750 752 755 757 759 761 764 767 769 771 773 776 778 780 782 784 786 787 789 791 793 795 796 798 800 801 802 803 804 806 807 808 810 811 812 814 815 817 818 819 820 822 823 823 824 825 825 826 826 826 827 827 828 828 829 829 828 828 828 829 829 829 829 828 828 828 827
731 739 747 763 775 778 784 787 786 793 785 765 760 767 778 779 760 748 748 738 732 732 730 731 735 737 739 741 743 744 747 750 752 755 757 759 761 763 766 768 770 772 774 776 779 781 782 784 786 788 789 792 793 795 797 798 799 800 802 803 804 806 807 809 810 811 813 815 817 818 819 820 821 822 823 823 824 824 825 825 826 826 827 828 828 828 828 827 827 827 828 828 827 827 827 827 827
737 742 750 767 781 792 799 797 797 794 775 758 758 768 781 775 749 737 738 730 720 718 719 721 725 729 732 734 738 742 744 747 749 751 753 755 757 758 761 764 766 768 770 772 775 777 779 781 783 785 786 788 790 792 794 795 796 797 799 800 802 803 805 806 808 809 811 813 814 815 816 817 819 820 821 822 822 823 823 824 825 825 826 826 827 827 827 827 827 826 827 827 826 826 826 826 826
732 731 738 755 765 777 788 787 788 785 772 765 767 773 778 768 741 723 721 717 713 715 716 717 722 725 726 731 736 739 742 744 745 747 749 750 752 754 757 760 762 764 766 768 770 773 775 777 779 781 782 784 786 788 790 792 793 795 796 797 799 800 802 804 805 807 809 810 811 813 814 815 817 818 819 820 821 822 822 822 823 824 825 826 826 826 826 826 826 826 826 826 825 825 825 825 825
728 723 733 746 743 746 763 769 765 765 768 772 773 767 757 743 726 715 717 716 714 718 719 720 724 724 727 734 736 737 739 740 741 743 745 746 748 751 754 756 758 760 762 764 767 769 771 772 775 776 778 780 782 784 786 788 790 792 793 794 796 797 799 801 803 805 806 808 809 810 812 814 815 817 818 819 820 820 821 821 822 823 824 824 825 825 826 825 825 825 825 825 824 824 824 823 823
727 730 736 734 724 727 749 764 761 760 769 772 768 758 746 739 729 719 720 720 718 720 720 720 722 722 728 733 732 733 735 735 737 738 740 743 745 749 751 753 755 757 760 761 762 763 765 767 769 772 775 777 778 780 782 784 786 788 790 791 793 794 796 798 800 802 804 806 807 808 810 812 813 815 817 818 819 819 820 820 821 822 823 823 824 824 825 825 824 824 824 824 823 823 823 822 822
721 732 726 720 724 728 738 757 768 774 775 767 762 756 750 751 744 728 725 725 723 722 719 719 722 723 727 728 728 730 729 730 732 734 737 739 741 745 747 749 751 753 755 755 756 758 760 763 765 767 770 771 772 774 777 780 782 784 786 787 789 791 793 795 798 800 802 804 806 807 809 810 812 814 815 817 818 818 819 819 820 821 821 822 823 823 824 824 824 823 823 823 822 822 821 820 820
704 713 707 714 737 743 742 753 765 776 779 768 759 755 750 749 740 729 727 725 722 723 721 720 723 723 723 724 724 726 726 728 731 732 736 737 738 741 743 745 747 749 751 752 753 756 759 761 762 764 765 766 768 772 774 777 778 780 782 784 786 788 790 793 796 799 801 803 805 806 807 809 810 812 814 815 817 817 818 818 818 819 820 821 822 822 823 823 822 822 822 821 821 820 820 819 818
697 703 705 710 723 732 735 741 746 757 773 772 762 757 749 737 725 716 713 714 718 723 722 720 720 718 717 718 720 723 724 726 727 730 732 733 734 736 738 741 743 744 747 749 752 756 756 758 760 761 763 765 768 770 771 773 775 776 779 781 783 786 788 792 795 798 800 802 804 805 806 808 809 811 813 814 815 816 816 817 817 817 818 819 820 821 821 821 821 821 821 820 820 819 818 818 817
708 713 718 716 716 721 726 733 736 739 756 765 763 761 743 719 711 703 695 702 713 715 714 714 714 713 713 714 715 718 720 721 723 725 726 728 729 731 734 736 738 740 744 747 750 752 753 755 757 759 761 764 765 767 769 770 771 773 775 778 781 784 787 791 794 797 800 801 803 804 805 806 807 809 811 812 814 814 815 815 815 815 816 817 818 819 819 820 820 819 819 818 818 817 817 816 816
703 710 715 714 715 722 733 742 739 731 739 747 751 756 734 705 701 695 686 697 706 703 705 708 709 710 710 710 710 712 714 716 718 718 721 723 725 728 731 734 737 740 743 746 748 749 751 753 754 756 759 760 762 763 764 766 768 770 772 775 779 783 787 791 794 797 799 801 802 803 803 804 805 807 809 810 811 812 813 813 813 813 814 815 816 817 817 818 818 817 816 816 815 815 815 814 814